START_TIME,STEP,MOV.,A46,t_acc.,A13,t_acc.,M47,t_acc.,A17,t_acc.,A28,t_acc.,M38,t_acc.
1979-03-09 03:00:23.540 ,5,1,,0,34.,4.8,4.,4.8,,0,0.,4.8,29.,4.8
1979-03-09 03:00:28.340 ,5,1,,0,63.,4.8,21.,4.8,,0,0.,4.8,48.,4.8
1979-03-09 03:00:33.140 ,5,1,,0,74.,4.8,20.,4.8,,0,0.,4.8,58.,4.8
1979-03-09 03:00:37.940 ,5,1,,0,1.,4.8,0.,4.8,,0,0.,4.8,66.,4.8
1979-03-09 03:00:42.740 ,5,1,,0,0.,4.8,0.,4.8,,0,0.,4.8,26.,4.8
1979-03-09 03:00:47.540 ,6,1,,0,0.,4.8,0.,4.8,,0,0.,4.8,10.,4.8
1979-03-09 03:00:52.340 ,6,1,,0,0.,4.8,0.,4.8,,0,0.,4.8,0.,4.8
1979-03-09 03:00:57.140 ,6,1,,0,2.,4.8,0.,4.8,,0,0.,4.8,0.,4.8
1979-03-09 03:01:01.940 ,6,1,,0,13.,4.8,1.,4.8,,0,0.,4.8,7.,4.8
1979-03-09 03:01:06.740 ,6,1,,0,62.,4.8,13.,4.8,,0,0.,4.8,35.,4.8
1979-03-09 03:01:11.540 ,2,1,,0,96.,4.8,20.,4.8,,0,0.,4.8,48.,4.8
1979-03-09 03:01:16.340 ,2,1,,0,96.,4.8,21.,4.8,,0,0.,4.8,42.,4.8
1979-03-09 03:01:21.140 ,2,1,,0,38.,4.8,9.,4.8,,0,0.,4.8,38.,4.8
1979-03-09 03:01:25.940 ,2,1,,0,0.,4.8,0.,4.8,,0,0.,4.8,25.,4.8
1979-03-09 03:01:30.740 ,2,1,,0,0.,4.8,0.,4.8,,0,0.,4.8,11.,4.8
1979-03-09 03:01:35.540 ,1,1,,0,1.,4.8,0.,4.8,,0,0.,4.8,4.,4.8
1979-03-09 03:01:40.340 ,1,1,,0,0.,4.8,0.,4.8,,0,0.,4.8,1.,4.8
1979-03-09 03:01:45.140 ,1,1,,0,0.,4.8,0.,4.8,,0,0.,4.8,2.,4.8
1979-03-09 03:01:49.940 ,1,1,,0,4.,4.8,0.,4.8,,0,0.,4.8,0.,4.8
1979-03-09 03:01:54.740 ,1,1,,0,22.,4.8,5.,4.8,,0,0.,4.8,14.,4.8
1979-03-09 03:01:59.540 ,5,1,,0,27.,4.8,4.,4.8,,0,0.,4.8,12.,4.8
1979-03-09 03:02:04.340 ,5,1,,0,47.,4.8,10.,4.8,,0,0.,4.8,32.,4.8
1979-03-09 03:02:09.140 ,5,1,,0,57.,4.8,14.,4.8,,0,0.,4.8,50.,4.8
1979-03-09 03:02:13.940 ,5,1,,0,0.,4.8,0.,4.8,,0,0.,4.8,64.,4.8
1979-03-09 03:02:18.740 ,5,1,,0,0.,4.8,0.,4.8,,0,0.,4.8,40.,4.8
1979-03-09 03:02:23.540 ,6,1,,0,0.,4.8,0.,4.8,,0,0.,4.8,14.,4.8
1979-03-09 03:02:28.340 ,6,1,,0,0.,4.8,0.,4.8,,0,0.,4.8,0.,4.8
1979-03-09 03:02:33.140 ,6,1,,0,0.,4.8,0.,4.8,,0,0.,4.8,0.,4.8
1979-03-09 03:02:37.940 ,6,1,,0,24.,4.8,7.,4.8,,0,0.,4.8,5.,4.8
1979-03-09 03:02:42.740 ,6,1,,0,56.,4.8,14.,4.8,,0,0.,4.8,29.,4.8
1979-03-09 03:02:47.540 ,2,1,,0,68.,4.8,16.,4.8,,0,0.,4.8,54.,4.8
1979-03-09 03:02:52.340 ,2,1,,0,70.,4.8,15.,4.8,,0,0.,4.8,49.,4.8
1979-03-09 03:02:57.140 ,2,1,,0,14.,4.8,4.,4.8,,0,0.,4.8,24.,4.8
1979-03-09 03:03:01.940 ,2,1,,0,0.,4.8,0.,4.8,,0,0.,4.8,23.,4.8
1979-03-09 03:03:06.740 ,2,1,,0,0.,4.8,0.,4.8,,0,0.,4.8,7.,4.8
1979-03-09 03:03:11.540 ,1,1,,0,0.,4.8,0.,4.8,,0,0.,4.8,2.,4.8
1979-03-09 03:03:16.340 ,1,1,,0,0.,4.8,0.,4.8,,0,0.,4.8,0.,4.8
1979-03-09 03:03:21.140 ,1,1,,0,1.,4.8,0.,4.8,,0,0.,4.8,0.,4.8
1979-03-09 03:03:25.940 ,1,1,,0,10.,4.8,0.,4.8,,0,0.,4.8,0.,4.8
1979-03-09 03:03:30.740 ,1,1,,0,18.,4.8,1.,4.8,,0,0.,4.8,8.,4.8
1979-03-09 03:03:35.540 ,5,1,,0,12.,4.8,0.,4.8,,0,0.,4.8,11.,4.8
1979-03-09 03:03:40.340 ,5,1,,0,25.,4.8,3.,4.8,,0,0.,4.8,24.,4.8
1979-03-09 03:03:45.140 ,5,1,,0,38.,4.8,6.,4.8,,0,0.,4.8,58.,4.8
1979-03-09 03:03:49.940 ,5,1,,0,0.,4.8,0.,4.8,,0,0.,4.8,54.,4.8
1979-03-09 03:03:54.740 ,5,1,,0,0.,4.8,0.,4.8,,0,0.,4.8,25.,4.8
1979-03-09 03:03:59.540 ,6,1,,0,1.,4.8,0.,4.8,,0,0.,4.8,9.,4.8
1979-03-09 03:04:04.340 ,6,1,,0,0.,4.8,0.,4.8,,0,0.,4.8,0.,4.8
1979-03-09 03:04:09.140 ,6,1,,0,0.,4.8,0.,4.8,,0,0.,4.8,0.,4.8
1979-03-09 03:04:13.940 ,6,1,,0,20.,4.8,4.,4.8,,0,0.,4.8,6.,4.8
1979-03-09 03:04:18.740 ,6,1,,0,49.,4.8,11.,4.8,,0,0.,4.8,29.,4.8
1979-03-09 03:04:23.540 ,2,1,,0,68.,4.8,16.,4.8,,0,0.,4.8,41.,4.8
1979-03-09 03:04:28.340 ,2,1,,0,56.,4.8,22.,4.8,,0,0.,4.8,46.,4.8
1979-03-09 03:04:33.140 ,2,1,,0,14.,4.8,4.,4.8,,0,0.,4.8,12.,4.8
1979-03-09 03:04:37.940 ,2,1,,0,0.,4.8,0.,4.8,,0,0.,4.8,13.,4.8
1979-03-09 03:04:42.740 ,2,1,,0,0.,4.8,0.,4.8,,0,0.,4.8,8.,4.8
1979-03-09 03:04:47.540 ,1,1,,0,0.,4.8,0.,4.8,,0,0.,4.8,2.,4.8
1979-03-09 03:04:52.340 ,1,1,,0,0.,4.8,0.,4.8,,0,0.,4.8,1.,4.8
1979-03-09 03:04:57.140 ,1,1,,0,0.,4.8,0.,4.8,,0,0.,4.8,0.,4.8
1979-03-09 03:05:01.940 ,1,1,,0,7.,4.8,1.,4.8,,0,0.,4.8,1.,4.8
1979-03-09 03:05:06.740 ,1,1,,0,8.,4.8,1.,4.8,,0,0.,4.8,6.,4.8
1979-03-09 03:05:11.540 ,5,1,,0,22.,4.8,4.,4.8,,0,0.,4.8,6.,4.8
1979-03-09 03:05:16.340 ,5,1,,0,14.,4.8,0.,4.8,,0,0.,4.8,8.,4.8
1979-03-09 03:05:21.140 ,5,1,,0,36.,4.8,5.,4.8,,0,0.,4.8,45.,4.8
1979-03-09 03:05:25.940 ,5,1,,0,0.,4.8,0.,4.8,,0,0.,4.8,50.,4.8
1979-03-09 03:05:30.740 ,5,1,,0,0.,4.8,0.,4.8,,0,0.,4.8,26.,4.8
1979-03-09 03:05:35.540 ,6,1,,0,0.,4.8,0.,4.8,,0,0.,4.8,8.,4.8
1979-03-09 03:05:40.340 ,6,1,,0,0.,4.8,0.,4.8,,0,0.,4.8,0.,4.8
1979-03-09 03:05:45.140 ,6,1,,0,2.,4.8,0.,4.8,,0,0.,4.8,0.,4.8
1979-03-09 03:05:49.940 ,6,1,,0,25.,4.8,2.,4.8,,0,0.,4.8,10.,4.8
1979-03-09 03:05:54.740 ,6,1,,0,44.,4.8,17.,4.8,,0,0.,4.8,24.,4.8
1979-03-09 03:05:59.540 ,2,1,,0,66.,4.8,12.,4.8,,0,0.,4.8,36.,4.8
1979-03-09 03:06:04.340 ,2,1,,0,32.,4.8,5.,4.8,,0,0.,4.8,27.,4.8
1979-03-09 03:06:09.140 ,2,1,,0,9.,4.8,2.,4.8,,0,0.,4.8,10.,4.8
1979-03-09 03:06:13.940 ,2,1,,0,0.,4.8,0.,4.8,,0,0.,4.8,6.,4.8
1979-03-09 03:06:18.740 ,2,1,,0,0.,4.8,0.,4.8,,0,0.,4.8,2.,4.8
1979-03-09 03:06:23.540 ,1,1,,0,0.,4.8,0.,4.8,,0,0.,4.8,1.,4.8
1979-03-09 03:06:28.340 ,1,1,,0,0.,4.8,0.,4.8,,0,0.,4.8,2.,4.8
1979-03-09 03:06:33.140 ,1,1,,0,0.,4.8,0.,4.8,,0,0.,4.8,1.,4.8
1979-03-09 03:06:37.940 ,1,1,,0,7.,4.8,0.,4.8,,0,0.,4.8,1.,4.8
1979-03-09 03:06:42.740 ,1,1,,0,13.,4.8,1.,4.8,,0,0.,4.8,1.,4.8
1979-03-09 03:06:47.540 ,5,1,,0,10.,4.8,3.,4.8,,0,0.,4.8,11.,4.8
1979-03-09 03:06:52.340 ,5,1,,0,7.,4.8,0.,4.8,,0,0.,4.8,10.,4.8
1979-03-09 03:06:57.140 ,5,1,,0,13.,4.8,2.,4.8,,0,0.,4.8,22.,4.8
1979-03-09 03:07:01.940 ,5,1,,0,0.,4.8,0.,4.8,,0,0.,4.8,37.,4.8
1979-03-09 03:07:06.740 ,5,1,,0,0.,4.8,0.,4.8,,0,0.,4.8,20.,4.8
1979-03-09 03:07:11.540 ,6,1,,0,0.,4.8,0.,4.8,,0,0.,4.8,11.,4.8
1979-03-09 03:07:16.340 ,6,1,,0,0.,4.8,0.,4.8,,0,0.,4.8,0.,4.8
1979-03-09 03:07:21.140 ,6,1,,0,0.,4.8,0.,4.8,,0,0.,4.8,0.,4.8
1979-03-09 03:07:25.940 ,6,1,,0,11.,4.8,2.,4.8,,0,0.,4.8,5.,4.8
1979-03-09 03:07:30.740 ,6,1,,0,28.,4.8,3.,4.8,,0,0.,4.8,23.,4.8
1979-03-09 03:07:35.540 ,2,1,,0,49.,4.8,11.,4.8,,0,0.,4.8,30.,4.8
1979-03-09 03:07:40.340 ,2,1,,0,13.,4.8,4.,4.8,,0,0.,4.8,15.,4.8
1979-03-09 03:07:45.140 ,2,1,,0,13.,4.8,2.,4.8,,0,0.,4.8,7.,4.8
1979-03-09 03:07:49.940 ,2,1,,0,0.,4.8,0.,4.8,,0,0.,4.8,6.,4.8
1979-03-09 03:07:54.740 ,2,1,,0,0.,4.8,0.,4.8,,0,0.,4.8,5.,4.8
1979-03-09 03:07:59.540 ,1,1,,0,0.,4.8,0.,4.8,,0,0.,4.8,1.,4.8
1979-03-09 03:08:04.340 ,1,1,,0,0.,4.8,0.,4.8,,0,0.,4.8,2.,4.8
1979-03-09 03:08:09.140 ,1,1,,0,0.,4.8,0.,4.8,,0,0.,4.8,1.,4.8
1979-03-09 03:08:13.940 ,1,1,,0,2.,4.8,0.,4.8,,0,0.,4.8,0.,4.8
1979-03-09 03:08:18.740 ,1,1,,0,2.,4.8,0.,4.8,,0,0.,4.8,2.,4.8
1979-03-09 03:08:23.540 ,5,1,,0,9.,4.8,3.,4.8,,0,0.,4.8,3.,4.8
1979-03-09 03:08:28.340 ,5,1,,0,9.,4.8,2.,4.8,,0,0.,4.8,7.,4.8
1979-03-09 03:08:33.140 ,5,1,,0,9.,4.8,1.,4.8,,0,0.,4.8,9.,4.8
1979-03-09 03:08:37.940 ,5,1,,0,0.,4.8,0.,4.8,,0,0.,4.8,22.,4.8
1979-03-09 03:08:42.740 ,5,1,,0,0.,4.8,0.,4.8,,0,0.,4.8,17.,4.8
1979-03-09 03:08:47.540 ,6,1,,0,0.,4.8,0.,4.8,,0,0.,4.8,7.,4.8
1979-03-09 03:08:52.340 ,6,1,,0,0.,4.8,0.,4.8,,0,0.,4.8,0.,4.8
1979-03-09 03:08:57.140 ,6,1,,0,1.,4.8,0.,4.8,,0,0.,4.8,0.,4.8
1979-03-09 03:09:01.940 ,6,1,,0,10.,4.8,1.,4.8,,0,0.,4.8,5.,4.8
1979-03-09 03:09:06.740 ,6,1,,0,24.,4.8,6.,4.8,,0,0.,4.8,7.,4.8
1979-03-09 03:09:11.540 ,2,1,,0,33.,4.8,8.,4.8,,0,0.,4.8,20.,4.8
1979-03-09 03:09:16.340 ,2,1,,0,13.,4.8,3.,4.8,,0,0.,4.8,12.,4.8
1979-03-09 03:09:21.140 ,2,1,,0,7.,4.8,1.,4.8,,0,0.,4.8,4.,4.8
1979-03-09 03:09:25.940 ,2,1,,0,0.,4.8,0.,4.8,,0,0.,4.8,1.,4.8
1979-03-09 03:09:30.740 ,2,1,,0,0.,4.8,0.,4.8,,0,0.,4.8,0.,4.8
1979-03-09 03:09:35.540 ,1,1,,0,0.,4.8,0.,4.8,,0,0.,4.8,1.,4.8
1979-03-09 03:09:40.340 ,1,1,,0,0.,4.8,0.,4.8,,0,0.,4.8,1.,4.8
1979-03-09 03:09:45.140 ,1,1,,0,0.,4.8,0.,4.8,,0,0.,4.8,0.,4.8
1979-03-09 03:09:49.940 ,1,1,,0,1.,4.8,0.,4.8,,0,0.,4.8,0.,4.8
1979-03-09 03:09:54.740 ,1,1,,0,6.,4.8,1.,4.8,,0,0.,4.8,2.,4.8
1979-03-09 03:09:59.540 ,5,1,,0,9.,4.8,3.,4.8,,0,0.,4.8,2.,4.8
1979-03-09 03:10:04.340 ,5,1,,0,4.,4.8,0.,4.8,,0,0.,4.8,2.,4.8
1979-03-09 03:10:09.140 ,5,1,,0,6.,4.8,2.,4.8,,0,0.,4.8,7.,4.8
1979-03-09 03:10:13.940 ,5,1,,0,0.,4.8,0.,4.8,,0,0.,4.8,19.,4.8
1979-03-09 03:10:18.740 ,5,1,,0,0.,4.8,0.,4.8,,0,0.,4.8,14.,4.8
1979-03-09 03:10:23.540 ,6,1,,0,0.,4.8,0.,4.8,,0,0.,4.8,3.,4.8
1979-03-09 03:10:28.340 ,6,1,,0,0.,4.8,0.,4.8,,0,0.,4.8,0.,4.8
1979-03-09 03:10:33.140 ,6,1,,0,1.,4.8,0.,4.8,,0,0.,4.8,0.,4.8
1979-03-09 03:10:37.940 ,6,1,,0,6.,4.8,2.,4.8,,0,0.,4.8,3.,4.8
1979-03-09 03:10:42.740 ,6,1,,0,18.,4.8,6.,4.8,,0,0.,4.8,14.,4.8
1979-03-09 03:10:47.540 ,2,1,,0,26.,4.8,6.,4.8,,0,0.,4.8,14.,4.8
1979-03-09 03:10:52.340 ,2,1,,0,6.,4.8,3.,4.8,,0,0.,4.8,4.,4.8
1979-03-09 03:10:57.140 ,2,1,,0,4.,4.8,1.,4.8,,0,0.,4.8,11.,4.8
1979-03-09 03:11:01.940 ,2,1,,0,0.,4.8,0.,4.8,,0,0.,4.8,3.,4.8
1979-03-09 03:11:06.740 ,2,1,,0,0.,4.8,0.,4.8,,0,0.,4.8,1.,4.8
1979-03-09 03:11:11.540 ,1,1,,0,0.,4.8,0.,4.8,,0,0.,4.8,1.,4.8
1979-03-09 03:11:16.340 ,1,1,,0,0.,4.8,0.,4.8,,0,0.,4.8,0.,4.8
1979-03-09 03:11:21.140 ,1,1,,0,0.,4.8,0.,4.8,,0,0.,4.8,0.,4.8
1979-03-09 03:11:25.940 ,1,1,,0,1.,4.8,0.,4.8,,0,0.,4.8,0.,4.8
1979-03-09 03:11:30.740 ,1,1,,0,4.,4.8,2.,4.8,,0,0.,4.8,2.,4.8
1979-03-09 03:11:35.540 ,5,1,,0,5.,4.8,2.,4.8,,0,0.,4.8,6.,4.8
1979-03-09 03:11:40.340 ,5,1,,0,5.,4.8,1.,4.8,,0,0.,4.8,2.,4.8
1979-03-09 03:11:45.140 ,5,1,,0,8.,4.8,4.,4.8,,0,0.,4.8,8.,4.8
1979-03-09 03:11:49.940 ,5,1,,0,0.,4.8,0.,4.8,,0,0.,4.8,12.,4.8
1979-03-09 03:11:54.740 ,5,1,,0,0.,4.8,0.,4.8,,0,0.,4.8,11.,4.8
1979-03-09 03:11:59.540 ,6,1,,0,0.,4.8,0.,4.8,,0,0.,4.8,6.,4.8
1979-03-09 03:12:04.340 ,6,1,,0,0.,4.8,0.,4.8,,0,0.,4.8,0.,4.8
1979-03-09 03:12:09.140 ,6,1,,0,0.,4.8,0.,4.8,,0,0.,4.8,0.,4.8
1979-03-09 03:12:13.940 ,6,1,,0,8.,4.8,2.,4.8,,0,0.,4.8,6.,4.8
1979-03-09 03:12:18.740 ,6,1,,0,10.,4.8,2.,4.8,,0,0.,4.8,8.,4.8
1979-03-09 03:12:23.540 ,2,1,,0,20.,4.8,4.,4.8,,0,0.,4.8,7.,4.8
1979-03-09 03:12:28.340 ,2,1,,0,5.,4.8,1.,4.8,,0,0.,4.8,6.,4.8
1979-03-09 03:12:33.140 ,2,1,,0,5.,4.8,2.,4.8,,0,0.,4.8,7.,4.8
1979-03-09 03:12:37.940 ,2,1,,0,0.,4.8,0.,4.8,,0,0.,4.8,4.,4.8
1979-03-09 03:12:42.740 ,2,1,,0,0.,4.8,0.,4.8,,0,0.,4.8,0.,4.8
1979-03-09 03:12:47.540 ,1,1,,0,0.,4.8,0.,4.8,,0,0.,4.8,0.,4.8
1979-03-09 03:12:52.340 ,1,1,,0,0.,4.8,0.,4.8,,0,0.,4.8,0.,4.8
1979-03-09 03:12:57.140 ,1,1,,0,0.,4.8,0.,4.8,,0,0.,4.8,0.,4.8
1979-03-09 03:13:01.940 ,1,1,,0,1.,4.8,0.,4.8,,0,0.,4.8,1.,4.8
1979-03-09 03:13:06.740 ,1,1,,0,2.,4.8,0.,4.8,,0,0.,4.8,3.,4.8
1979-03-09 03:13:11.540 ,5,1,,0,1.,4.8,1.,4.8,,0,0.,4.8,1.,4.8
1979-03-09 03:13:16.340 ,5,1,,0,3.,4.8,0.,4.8,,0,0.,4.8,2.,4.8
1979-03-09 03:13:21.140 ,5,1,,0,6.,4.8,0.,4.8,,0,0.,4.8,5.,4.8
1979-03-09 03:13:25.940 ,5,1,,0,0.,4.8,0.,4.8,,0,0.,4.8,11.,4.8
1979-03-09 03:13:30.740 ,5,1,,0,0.,4.8,0.,4.8,,0,0.,4.8,6.,4.8
1979-03-09 03:13:35.540 ,6,1,,0,0.,4.8,0.,4.8,,0,0.,4.8,1.,4.8
1979-03-09 03:13:40.340 ,6,1,,0,0.,4.8,0.,4.8,,0,0.,4.8,0.,4.8
1979-03-09 03:13:45.140 ,6,1,,0,0.,4.8,0.,4.8,,0,0.,4.8,0.,4.8
1979-03-09 03:13:49.940 ,6,1,,0,8.,4.8,2.,4.8,,0,0.,4.8,3.,4.8
1979-03-09 03:13:54.740 ,6,1,,0,8.,4.8,4.,4.8,,0,0.,4.8,4.,4.8
1979-03-09 03:13:59.540 ,2,1,,0,16.,4.8,6.,4.8,,0,0.,4.8,6.,4.8
1979-03-09 03:14:04.340 ,2,1,,0,5.,4.8,1.,4.8,,0,0.,4.8,9.,4.8
1979-03-09 03:14:09.140 ,2,1,,0,9.,4.8,1.,4.8,,0,0.,4.8,5.,4.8
1979-03-09 03:14:13.940 ,2,1,,0,0.,4.8,0.,4.8,,0,0.,4.8,1.,4.8
1979-03-09 03:14:18.740 ,2,1,,0,0.,4.8,0.,4.8,,0,0.,4.8,0.,4.8
1979-03-09 03:14:23.540 ,1,1,,0,0.,4.8,0.,4.8,,0,0.,4.8,0.,4.8
1979-03-09 03:14:28.340 ,1,1,,0,0.,4.8,0.,4.8,,0,0.,4.8,0.,4.8
1979-03-09 03:14:33.140 ,1,1,,0,0.,4.8,0.,4.8,,0,0.,4.8,0.,4.8
1979-03-09 03:14:37.940 ,1,1,,0,0.,4.8,0.,4.8,,0,0.,4.8,0.,4.8
1979-03-09 03:14:42.740 ,1,1,,0,2.,4.8,0.,4.8,,0,0.,4.8,0.,4.8
1979-03-09 03:14:47.540 ,5,1,,0,1.,4.8,0.,4.8,,0,0.,4.8,2.,4.8
1979-03-09 03:14:52.340 ,5,1,,0,3.,4.8,0.,4.8,,0,0.,4.8,2.,4.8
1979-03-09 03:14:57.140 ,5,1,,0,3.,4.8,1.,4.8,,0,0.,4.8,8.,4.8
1979-03-09 03:15:01.940 ,5,1,,0,0.,4.8,0.,4.8,,0,0.,4.8,5.,4.8
1979-03-09 03:15:06.740 ,5,1,,0,0.,4.8,0.,4.8,,0,0.,4.8,2.,4.8
1979-03-09 03:15:11.540 ,6,1,,0,0.,4.8,0.,4.8,,0,0.,4.8,5.,4.8
1979-03-09 03:15:16.340 ,6,1,,0,0.,4.8,0.,4.8,,0,0.,4.8,0.,4.8
1979-03-09 03:15:21.140 ,6,1,,0,0.,4.8,0.,4.8,,0,0.,4.8,0.,4.8
1979-03-09 03:15:25.940 ,6,1,,0,3.,4.8,1.,4.8,,0,0.,4.8,0.,4.8
1979-03-09 03:15:30.740 ,6,1,,0,10.,4.8,6.,4.8,,0,0.,4.8,2.,4.8
1979-03-09 03:15:35.540 ,2,1,,0,10.,4.8,4.,4.8,,0,0.,4.8,8.,4.8
1979-03-09 03:15:40.340 ,2,1,,0,9.,4.8,4.,4.8,,0,0.,4.8,2.,4.8
1979-03-09 03:15:45.140 ,2,1,,0,4.,4.8,1.,4.8,,0,0.,4.8,4.,4.8
1979-03-09 03:15:49.940 ,2,1,,0,0.,4.8,0.,4.8,,0,0.,4.8,1.,4.8
1979-03-09 03:15:54.740 ,2,1,,0,0.,4.8,0.,4.8,,0,0.,4.8,1.,4.8
1979-03-09 03:15:59.540 ,1,1,,0,0.,4.8,0.,4.8,,0,0.,4.8,1.,4.8
1979-03-09 03:16:04.340 ,1,1,,0,0.,4.8,0.,4.8,,0,0.,4.8,0.,4.8
1979-03-09 03:16:09.140 ,1,1,,0,0.,4.8,0.,4.8,,0,0.,4.8,0.,4.8
1979-03-09 03:16:13.940 ,1,1,,0,1.,4.8,0.,4.8,,0,0.,4.8,0.,4.8
1979-03-09 03:16:18.740 ,1,1,,0,4.,4.8,2.,4.8,,0,0.,4.8,1.,4.8
1979-03-09 03:16:23.540 ,5,1,,0,1.,4.8,1.,4.8,,0,0.,4.8,1.,4.8
1979-03-09 03:16:28.340 ,5,1,,0,7.,4.8,1.,4.8,,0,0.,4.8,5.,4.8
1979-03-09 03:16:33.140 ,5,1,,0,5.,4.8,1.,4.8,,0,0.,4.8,4.,4.8
1979-03-09 03:16:37.940 ,5,1,,0,0.,4.8,0.,4.8,,0,0.,4.8,7.,4.8
1979-03-09 03:16:42.740 ,5,1,,0,0.,4.8,0.,4.8,,0,0.,4.8,2.,4.8
1979-03-09 03:16:47.540 ,6,1,,0,0.,4.8,0.,4.8,,0,0.,4.8,0.,4.8
1979-03-09 03:16:52.340 ,6,1,,0,0.,4.8,0.,4.8,,0,0.,4.8,0.,4.8
1979-03-09 03:16:57.140 ,6,1,,0,0.,4.8,0.,4.8,,0,0.,4.8,0.,4.8
1979-03-09 03:17:01.940 ,6,1,,0,3.,4.8,0.,4.8,,0,0.,4.8,0.,4.8
1979-03-09 03:17:06.740 ,6,1,,0,4.,4.8,0.,4.8,,0,0.,4.8,3.,4.8
1979-03-09 03:17:11.540 ,2,1,,0,12.,4.8,5.,4.8,,0,0.,4.8,1.,4.8
1979-03-09 03:17:16.340 ,2,1,,0,10.,4.8,5.,4.8,,0,0.,4.8,9.,4.8
1979-03-09 03:17:21.140 ,2,1,,0,4.,4.8,1.,4.8,,0,0.,4.8,6.,4.8
1979-03-09 03:17:25.940 ,2,1,,0,0.,4.8,0.,4.8,,0,0.,4.8,3.,4.8
1979-03-09 03:17:30.740 ,2,1,,0,0.,4.8,0.,4.8,,0,0.,4.8,0.,4.8
1979-03-09 03:17:35.540 ,1,1,,0,0.,4.8,0.,4.8,,0,0.,4.8,0.,4.8
1979-03-09 03:17:40.340 ,1,1,,0,0.,4.8,0.,4.8,,0,0.,4.8,0.,4.8
1979-03-09 03:17:45.140 ,1,1,,0,0.,4.8,0.,4.8,,0,0.,4.8,0.,4.8
1979-03-09 03:17:49.940 ,1,1,,0,2.,4.8,0.,4.8,,0,0.,4.8,1.,4.8
1979-03-09 03:17:54.740 ,1,1,,0,1.,4.8,0.,4.8,,0,0.,4.8,1.,4.8
1979-03-09 03:17:59.540 ,5,1,,0,4.,4.8,0.,4.8,,0,0.,4.8,4.,4.8
1979-03-09 03:18:04.340 ,5,1,,0,6.,4.8,3.,4.8,,0,0.,4.8,5.,4.8
1979-03-09 03:18:09.140 ,5,1,,0,10.,4.8,4.,4.8,,0,0.,4.8,11.,4.8
1979-03-09 03:18:13.940 ,5,1,,0,0.,4.8,0.,4.8,,0,0.,4.8,7.,4.8
1979-03-09 03:18:18.740 ,5,1,,0,0.,4.8,0.,4.8,,0,0.,4.8,3.,4.8
1979-03-09 03:18:23.540 ,6,1,,0,0.,4.8,0.,4.8,,0,0.,4.8,0.,4.8
1979-03-09 03:18:28.340 ,6,1,,0,0.,4.8,0.,4.8,,0,0.,4.8,0.,4.8
1979-03-09 03:18:33.140 ,6,1,,0,1.,4.8,0.,4.8,,0,0.,4.8,0.,4.8
1979-03-09 03:18:37.940 ,6,1,,0,2.,4.8,0.,4.8,,0,0.,4.8,0.,4.8
1979-03-09 03:18:42.740 ,6,1,,0,6.,4.8,1.,4.8,,0,0.,4.8,5.,4.8
1979-03-09 03:18:47.540 ,2,1,,0,13.,4.8,3.,4.8,,0,0.,4.8,6.,4.8
1979-03-09 03:18:52.340 ,2,1,,0,2.,4.8,1.,4.8,,0,0.,4.8,5.,4.8
1979-03-09 03:18:57.140 ,2,1,,0,3.,4.8,0.,4.8,,0,0.,4.8,8.,4.8
1979-03-09 03:19:01.940 ,2,1,,0,0.,4.8,0.,4.8,,0,0.,4.8,0.,4.8
1979-03-09 03:19:06.740 ,2,1,,0,0.,4.8,0.,4.8,,0,0.,4.8,1.,4.8
1979-03-09 03:19:11.540 ,1,1,,0,0.,4.8,0.,4.8,,0,0.,4.8,0.,4.8
1979-03-09 03:19:16.340 ,1,1,,0,0.,4.8,0.,4.8,,0,0.,4.8,0.,4.8
1979-03-09 03:19:21.140 ,1,1,,0,0.,4.8,0.,4.8,,0,0.,4.8,0.,4.8
1979-03-09 03:19:25.940 ,1,1,,0,1.,4.8,1.,4.8,,0,0.,4.8,0.,4.8
1979-03-09 03:19:30.740 ,1,1,,0,2.,4.8,1.,4.8,,0,0.,4.8,0.,4.8
1979-03-09 03:19:35.540 ,5,1,,0,4.,4.8,1.,4.8,,0,0.,4.8,3.,4.8
1979-03-09 03:19:40.340 ,5,1,,0,3.,4.8,1.,4.8,,0,0.,4.8,1.,4.8
1979-03-09 03:19:45.140 ,5,1,,0,7.,4.8,4.,4.8,,0,0.,4.8,5.,4.8
1979-03-09 03:19:49.940 ,5,1,,0,0.,4.8,0.,4.8,,0,0.,4.8,3.,4.8
1979-03-09 03:19:54.740 ,5,1,,0,0.,4.8,0.,4.8,,0,0.,4.8,4.,4.8
1979-03-09 03:19:59.540 ,6,1,,0,0.,4.8,0.,4.8,,0,0.,4.8,0.,4.8
1979-03-09 03:20:04.340 ,6,1,,0,0.,4.8,0.,4.8,,0,0.,4.8,0.,4.8
1979-03-09 03:20:09.140 ,6,1,,0,2.,4.8,0.,4.8,,0,0.,4.8,0.,4.8
1979-03-09 03:20:13.940 ,6,1,,0,2.,4.8,0.,4.8,,0,0.,4.8,0.,4.8
1979-03-09 03:20:18.740 ,6,1,,0,3.,4.8,0.,4.8,,0,0.,4.8,8.,4.8
1979-03-09 03:20:23.540 ,2,1,,0,3.,4.8,1.,4.8,,0,0.,4.8,6.,4.8
1979-03-09 03:20:28.340 ,2,1,,0,5.,4.8,3.,4.8,,0,0.,4.8,9.,4.8
1979-03-09 03:20:33.140 ,2,1,,0,8.,4.8,2.,4.8,,0,0.,4.8,4.,4.8
1979-03-09 03:20:37.940 ,2,1,,0,0.,4.8,0.,4.8,,0,0.,4.8,3.,4.8
1979-03-09 03:20:42.740 ,2,1,,0,0.,4.8,0.,4.8,,0,0.,4.8,1.,4.8
1979-03-09 03:20:47.540 ,1,1,,0,0.,4.8,0.,4.8,,0,0.,4.8,0.,4.8
1979-03-09 03:20:52.340 ,1,1,,0,0.,4.8,0.,4.8,,0,0.,4.8,0.,4.8
1979-03-09 03:20:57.140 ,1,1,,0,0.,4.8,0.,4.8,,0,0.,4.8,1.,4.8
1979-03-09 03:21:01.940 ,1,1,,0,0.,4.8,0.,4.8,,0,0.,4.8,0.,4.8
1979-03-09 03:21:06.740 ,1,1,,0,2.,4.8,1.,4.8,,0,0.,4.8,1.,4.8
1979-03-09 03:21:11.540 ,5,1,,0,11.,4.8,4.,4.8,,0,0.,4.8,3.,4.8
1979-03-09 03:21:16.340 ,5,1,,0,3.,4.8,1.,4.8,,0,0.,4.8,3.,4.8
1979-03-09 03:21:21.140 ,5,1,,0,6.,4.8,1.,4.8,,0,0.,4.8,7.,4.8
1979-03-09 03:21:25.940 ,5,1,,0,0.,4.8,0.,4.8,,0,0.,4.8,5.,4.8
1979-03-09 03:21:30.740 ,5,1,,0,0.,4.8,0.,4.8,,0,0.,4.8,5.,4.8
1979-03-09 03:21:35.540 ,6,1,,0,1.,4.8,0.,4.8,,0,0.,4.8,0.,4.8
1979-03-09 03:21:40.340 ,6,1,,0,0.,4.8,0.,4.8,,0,0.,4.8,0.,4.8
1979-03-09 03:21:45.140 ,6,1,,0,1.,4.8,0.,4.8,,0,0.,4.8,0.,4.8
1979-03-09 03:21:49.940 ,6,1,,0,5.,4.8,2.,4.8,,0,0.,4.8,0.,4.8
1979-03-09 03:21:54.740 ,6,1,,0,5.,4.8,2.,4.8,,0,0.,4.8,3.,4.8
1979-03-09 03:21:59.540 ,2,1,,0,6.,4.8,0.,4.8,,0,0.,4.8,5.,4.8
1979-03-09 03:22:04.340 ,2,1,,0,8.,4.8,0.,4.8,,0,0.,4.8,6.,4.8
1979-03-09 03:22:09.140 ,2,1,,0,9.,4.8,1.,4.8,,0,0.,4.8,8.,4.8
1979-03-09 03:22:13.940 ,2,1,,0,0.,4.8,0.,4.8,,0,0.,4.8,4.,4.8
1979-03-09 03:22:18.740 ,2,1,,0,0.,4.8,0.,4.8,,0,0.,4.8,4.,4.8
1979-03-09 03:22:23.540 ,1,1,,0,0.,4.8,0.,4.8,,0,0.,4.8,1.,4.8
1979-03-09 03:22:28.340 ,1,1,,0,0.,4.8,0.,4.8,,0,0.,4.8,0.,4.8
1979-03-09 03:22:33.140 ,1,1,,0,0.,4.8,0.,4.8,,0,0.,4.8,0.,4.8
1979-03-09 03:22:37.940 ,1,1,,0,0.,4.8,0.,4.8,,0,0.,4.8,1.,4.8
1979-03-09 03:22:42.740 ,1,1,,0,6.,4.8,1.,4.8,,0,0.,4.8,3.,4.8
1979-03-09 03:22:47.540 ,5,1,,0,5.,4.8,1.,4.8,,0,0.,4.8,4.,4.8
1979-03-09 03:22:52.340 ,5,1,,0,6.,4.8,0.,4.8,,0,0.,4.8,4.,4.8
1979-03-09 03:22:57.140 ,5,1,,0,4.,4.8,2.,4.8,,0,0.,4.8,2.,4.8
1979-03-09 03:23:01.940 ,5,1,,0,0.,4.8,0.,4.8,,0,0.,4.8,4.,4.8
1979-03-09 03:23:06.740 ,5,1,,0,0.,4.8,0.,4.8,,0,0.,4.8,2.,4.8
1979-03-09 03:23:11.540 ,6,1,,0,0.,4.8,0.,4.8,,0,0.,4.8,0.,4.8
1979-03-09 03:23:16.340 ,6,1,,0,0.,4.8,0.,4.8,,0,0.,4.8,0.,4.8
1979-03-09 03:23:21.140 ,6,1,,0,1.,4.8,0.,4.8,,0,0.,4.8,0.,4.8
1979-03-09 03:23:25.940 ,6,1,,0,5.,4.8,1.,4.8,,0,0.,4.8,0.,4.8
1979-03-09 03:23:30.740 ,6,1,,0,2.,4.8,1.,4.8,,0,0.,4.8,3.,4.8
1979-03-09 03:23:35.540 ,2,1,,0,7.,4.8,1.,4.8,,0,0.,4.8,7.,4.8
1979-03-09 03:23:40.340 ,2,1,,0,9.,4.8,3.,4.8,,0,0.,4.8,4.,4.8
1979-03-09 03:23:45.140 ,2,1,,0,12.,4.8,2.,4.8,,0,0.,4.8,7.,4.8
1979-03-09 03:23:49.940 ,2,1,,0,0.,4.8,0.,4.8,,0,0.,4.8,5.,4.8
1979-03-09 03:23:54.740 ,2,1,,0,0.,4.8,0.,4.8,,0,0.,4.8,4.,4.8
1979-03-09 03:23:59.540 ,1,1,,0,0.,4.8,0.,4.8,,0,0.,4.8,0.,4.8
1979-03-09 03:24:04.340 ,1,1,,0,0.,4.8,0.,4.8,,0,0.,4.8,0.,4.8
1979-03-09 03:24:09.140 ,1,1,,0,0.,4.8,0.,4.8,,0,0.,4.8,0.,4.8
1979-03-09 03:24:13.940 ,1,1,,0,0.,4.8,0.,4.8,,0,0.,4.8,2.,4.8
1979-03-09 03:24:18.740 ,1,1,,0,3.,4.8,0.,4.8,,0,0.,4.8,4.,4.8
1979-03-09 03:24:23.540 ,5,1,,0,5.,4.8,2.,4.8,,0,0.,4.8,10.,4.8
1979-03-09 03:24:28.340 ,5,1,,0,8.,4.8,1.,4.8,,0,0.,4.8,9.,4.8
1979-03-09 03:24:33.140 ,5,1,,0,5.,4.8,1.,4.8,,0,0.,4.8,5.,4.8
1979-03-09 03:24:37.940 ,5,1,,0,0.,4.8,0.,4.8,,0,0.,4.8,5.,4.8
1979-03-09 03:24:42.740 ,5,1,,0,0.,4.8,0.,4.8,,0,0.,4.8,0.,4.8
1979-03-09 03:24:47.540 ,6,1,,0,0.,4.8,0.,4.8,,0,0.,4.8,0.,4.8
1979-03-09 03:24:52.340 ,6,1,,0,0.,4.8,0.,4.8,,0,0.,4.8,0.,4.8
1979-03-09 03:24:57.140 ,6,1,,0,0.,4.8,0.,4.8,,0,0.,4.8,0.,4.8
1979-03-09 03:25:01.940 ,6,1,,0,2.,4.8,0.,4.8,,0,0.,4.8,1.,4.8
1979-03-09 03:25:06.740 ,6,1,,0,6.,4.8,1.,4.8,,0,0.,4.8,0.,4.8
1979-03-09 03:25:11.540 ,2,1,,0,6.,4.8,3.,4.8,,0,0.,4.8,0.,4.8
1979-03-09 03:25:16.340 ,2,1,,0,4.,4.8,1.,4.8,,0,0.,4.8,2.,4.8
1979-03-09 03:25:21.140 ,2,1,,0,17.,4.8,3.,4.8,,0,0.,4.8,11.,4.8
1979-03-09 03:25:25.940 ,2,1,,0,0.,4.8,0.,4.8,,0,0.,4.8,13.,4.8
1979-03-09 03:25:30.740 ,2,1,,0,0.,4.8,0.,4.8,,0,0.,4.8,3.,4.8
1979-03-09 03:25:35.540 ,1,1,,0,0.,4.8,0.,4.8,,0,0.,4.8,0.,4.8
1979-03-09 03:25:40.340 ,1,1,,0,0.,4.8,0.,4.8,,0,0.,4.8,1.,4.8
1979-03-09 03:25:45.140 ,1,1,,0,0.,4.8,0.,4.8,,0,0.,4.8,0.,4.8
1979-03-09 03:25:49.940 ,1,1,,0,3.,4.8,1.,4.8,,0,0.,4.8,0.,4.8
1979-03-09 03:25:54.740 ,1,1,,0,6.,4.8,1.,4.8,,0,0.,4.8,6.,4.8
1979-03-09 03:25:59.540 ,5,1,,0,8.,4.8,4.,4.8,,0,0.,4.8,11.,4.8
1979-03-09 03:26:04.340 ,5,1,,0,11.,4.8,1.,4.8,,0,0.,4.8,19.,4.8
1979-03-09 03:26:09.140 ,5,1,,0,10.,4.8,4.,4.8,,0,0.,4.8,6.,4.8
1979-03-09 03:26:13.940 ,5,1,,0,0.,4.8,0.,4.8,,0,0.,4.8,8.,4.8
1979-03-09 03:26:18.740 ,5,1,,0,0.,4.8,0.,4.8,,0,0.,4.8,2.,4.8
1979-03-09 03:26:23.540 ,6,1,,0,0.,4.8,0.,4.8,,0,0.,4.8,0.,4.8
1979-03-09 03:26:28.340 ,6,1,,0,0.,4.8,0.,4.8,,0,0.,4.8,0.,4.8
1979-03-09 03:26:33.140 ,6,1,,0,0.,4.8,0.,4.8,,0,0.,4.8,0.,4.8
1979-03-09 03:26:37.940 ,6,1,,0,2.,4.8,0.,4.8,,0,0.,4.8,0.,4.8
1979-03-09 03:26:42.740 ,6,1,,0,4.,4.8,1.,4.8,,0,0.,4.8,0.,4.8
1979-03-09 03:26:47.540 ,2,1,,0,6.,4.8,3.,4.8,,0,0.,4.8,6.,4.8
1979-03-09 03:26:52.340 ,2,1,,0,10.,4.8,3.,4.8,,0,0.,4.8,5.,4.8
1979-03-09 03:26:57.140 ,2,1,,0,16.,4.8,3.,4.8,,0,0.,4.8,14.,4.8
1979-03-09 03:27:01.940 ,2,1,,0,0.,4.8,0.,4.8,,0,0.,4.8,9.,4.8
1979-03-09 03:27:06.740 ,2,1,,0,0.,4.8,0.,4.8,,0,0.,4.8,3.,4.8
1979-03-09 03:27:11.540 ,1,1,,0,0.,4.8,0.,4.8,,0,0.,4.8,2.,4.8
1979-03-09 03:27:16.340 ,1,1,,0,0.,4.8,0.,4.8,,0,0.,4.8,0.,4.8
1979-03-09 03:27:21.140 ,1,1,,0,0.,4.8,0.,4.8,,0,0.,4.8,0.,4.8
1979-03-09 03:27:25.940 ,1,1,,0,5.,4.8,1.,4.8,,0,0.,4.8,2.,4.8
1979-03-09 03:27:30.740 ,1,1,,0,8.,4.8,1.,4.8,,0,0.,4.8,8.,4.8
1979-03-09 03:27:35.540 ,5,1,,0,23.,4.8,8.,4.8,,0,0.,4.8,16.,4.8
1979-03-09 03:27:40.340 ,5,1,,0,18.,4.8,3.,4.8,,0,0.,4.8,21.,4.8
1979-03-09 03:27:45.140 ,5,1,,0,5.,4.8,2.,4.8,,0,0.,4.8,13.,4.8
1979-03-09 03:27:49.940 ,5,1,,0,0.,4.8,0.,4.8,,0,0.,4.8,9.,4.8
1979-03-09 03:27:54.740 ,5,1,,0,0.,4.8,0.,4.8,,0,0.,4.8,5.,4.8
1979-03-09 03:27:59.540 ,6,1,,0,0.,4.8,0.,4.8,,0,0.,4.8,2.,4.8
1979-03-09 03:28:04.340 ,6,1,,0,0.,4.8,0.,4.8,,0,0.,4.8,0.,4.8
1979-03-09 03:28:09.140 ,6,1,,0,0.,4.8,0.,4.8,,0,0.,4.8,0.,4.8
1979-03-09 03:28:13.940 ,6,1,,0,0.,4.8,0.,4.8,,0,0.,4.8,1.,4.8
1979-03-09 03:28:18.740 ,6,1,,0,7.,4.8,2.,4.8,,0,0.,4.8,2.,4.8
1979-03-09 03:28:23.540 ,2,1,,0,12.,4.8,4.,4.8,,0,0.,4.8,5.,4.8
1979-03-09 03:28:28.340 ,2,1,,0,16.,4.8,5.,4.8,,0,0.,4.8,24.,4.8
1979-03-09 03:28:33.140 ,2,1,,0,23.,4.8,8.,4.8,,0,0.,4.8,16.,4.8
1979-03-09 03:28:37.940 ,2,1,,0,0.,4.8,0.,4.8,,0,0.,4.8,22.,4.8
1979-03-09 03:28:42.740 ,2,1,,0,0.,4.8,0.,4.8,,0,0.,4.8,4.,4.8
1979-03-09 03:28:47.540 ,1,1,,0,0.,4.8,0.,4.8,,0,0.,4.8,1.,4.8
1979-03-09 03:28:52.340 ,1,1,,0,0.,4.8,0.,4.8,,0,0.,4.8,0.,4.8
1979-03-09 03:28:57.140 ,1,1,,0,0.,4.8,0.,4.8,,0,0.,4.8,1.,4.8
1979-03-09 03:29:01.940 ,1,1,,0,6.,4.8,1.,4.8,,0,0.,4.8,1.,4.8
1979-03-09 03:29:06.740 ,1,1,,0,14.,4.8,3.,4.8,,0,0.,4.8,8.,4.8
1979-03-09 03:29:11.540 ,5,1,,0,21.,4.8,5.,4.8,,0,0.,4.8,14.,4.8
1979-03-09 03:29:16.340 ,5,1,,0,35.,4.8,3.,4.8,,0,0.,4.8,28.,4.8
1979-03-09 03:29:21.140 ,5,1,,0,16.,4.8,2.,4.8,,0,0.,4.8,17.,4.8
1979-03-09 03:29:25.940 ,5,1,,0,0.,4.8,0.,4.8,,0,0.,4.8,9.,4.8
1979-03-09 03:29:30.740 ,5,1,,0,0.,4.8,0.,4.8,,0,0.,4.8,3.,4.8
1979-03-09 03:29:35.540 ,6,1,,0,0.,4.8,0.,4.8,,0,0.,4.8,2.,4.8
1979-03-09 03:29:40.340 ,6,1,,0,0.,4.8,0.,4.8,,0,0.,4.8,0.,4.8
1979-03-09 03:29:45.140 ,6,1,,0,0.,4.8,0.,4.8,,0,0.,4.8,0.,4.8
1979-03-09 03:29:49.940 ,6,1,,0,4.,4.8,1.,4.8,,0,0.,4.8,0.,4.8
1979-03-09 03:29:54.740 ,6,1,,0,9.,4.8,3.,4.8,,0,0.,4.8,3.,4.8